Voltar ao catálogo

OPS 4682 DEB

AtivoPO
NORAD 38440·DEBRIS·🇺🇸 United States

Lançado Apr 3, 1965 de Vandenberg Space Force Base

Loading…

Próximas Passagens (próximas 24 horas)

TLE

EnvelhecendoSource: Space-Track

Época: Sep 7, 2026, 19:13 UTC

1 38440U 65027EV  26250.80130928  .00000625  00000-0  20757-2 0  9991
2 38440  90.2625  19.2224 0040364 166.1011 194.1232 12.98961452627686

Acompanhe OPS 4682 DEB em tempo real com AllMySat

Download on the App Store